Showing default

COSMOS 2256, 22691

Orbit data source: Space-Track

COSMOS 2256, 22691 is a payload satellite owned by VKS (CIS) in LEO that was launched on Thu, 24 Jun 1993 UTC via a TSIKLON-3 launch vehicle from the Plesetsk Missile And Space Complex (PKMTR). Payload-class satellites include a variety of spacecraft equipped with specific instruments for various scientific and technological missions. These include communications satellites like Starlink; space stations such as the ISS; scientific satellites like the Hubble; Earth observation satellites from companies like Planet Labs, Umbra, and HawkEye 360; GPS; miniature CubeSats for education and research; and military/defense satellites.

Loading next visibility...
Identifier
22691, 1993-038E
Orbit
LEO
Country
Flag of CISCIS
Related business
Manufacturer
NPO PM
Mission
Defense Communications
Bus & Motor
STRELA-3, Unknown motor
Mass
225 kg wet, 225 kg dry
Launch date (UTC)
1993-06-24 (33 years ago)
Launch vehicle
TSIKLON-3
Launch site
Plesetsk Missile And Space Complex (PKMTR)
Object type
Payload
Rocket body
Debris
Shape & HBR
Cyl, 0.8 m
Radar Cross Section
1.257 m², Large (>1 m²)

Expand to show TLE details & history
Last TLE update: 10 hours ago

TLE from 10 hours ago
0 COSMOS 2256
1 22691U 93038E   26125.55532866  .00000038  00000-0  14664-3 0  9994
2 22691  82.5760 238.9642 0007986  87.5049 283.3935 12.63946637516436
Epoch: 2026-05-05T13:19Z
TLE epoch observation values (Epoch: 2026-05-05T13:19:40.396Z)
Latitude
10.67023°
Longitude
177.01725°
Altitude
1,407.248 km
Speed
7.158 km/s
True Right ascension
16h 01m 27s
True Declination
10° 36' 47"
Sunlit
Object was in full shadow at epoch
Visualization orbit readout
Latitude
Unknown
Longitude
Unknown
Altitude
Unknown
Speed
Unknown
Apparent Right ascension
Unknown
Apparent Declination
Unknown
Sunlit
N/A
Visualization observer readout
Local Sidereal Time
06:58:47
Azimuth
Unknown
Elevation
Unknown
Doppler factor
Unknown
Orbital elements
Apogee altitude
1,410.23 km
Perigee altitude
1,397.801 km
Semi-major axis
7,782.152 km
Eccentricity
0.0008
Inclination
82.576°
RAAN
238.9642°
Arg. of periapsis
87.5049°
True anomaly
283.30446°
Mean anomaly
283.3935°
Eccentric anomaly
283.34898°
Mean motion
3.1615 °/min
Orbital period
113.87 mins
BSTAR
0.00014664
Loading maneuver chart data...
Computing Atmospheric mass density...
Loading historical data...
Loading historical data...
Loading historical data...
Loading historical data...
Loading historical data...
Loading historical data...
Loading historical data...

Documentation

Showing up to 5 results
|